SS 3

导读

SS 3是美国于1977年12月8日发射的一颗人造卫星,作为美国航天技术发展进程中的一员,它承载着特定航天任务,是冷战时期美国太空探索与技术竞争背景下的产物,反映了20世纪70年代美国的航天发射能力,在美国航天发展历程中留下了专属印记。

Basic Information
目录编号:
10594
目录名称:
SS 3
国际标识:
1977-112F
轨道中心:
EARTH
卫星名称:
SS 3
卫星全名:
--
卫星状态:
在轨 (已飞行17750 天)
发射日期:
1977-12-08 UTC
国别 :
美国 (US)
星等 :
--
Orbit Information
数据来源 国际轨道数据 AOE轨道数据
星历时间 2026-07-14T10:44:53+0800
7小时前
查看轨道信息
2026-07-11T01:00:00+0800
3天前
查看轨道信息
半长轴 7261.21km 7261.207km
偏心率 0.0479804 0.0479998
轨道倾角 63.332° 63.334°
近地点辐角 164.123° 164.066°
升交点赤经 96.688° 106.404°
平近点角 197.549° 272.436°
近地点 534.677km 534.533km
远地点 1231.469km 1231.607km
周期 102.630分钟 102.630分钟
每日圈数 14.031023 14.031032
Detailed Information
使用方式:
暂无
2D Orbit Map
3D Orbit Map
Orbit Altitude Analysis Chart
Orbit Inclination Analysis Chart
Orbit Comprehensive Analysis Chart
View Comprehensive Chart